Погода в Кульсарах

Казахстан     46°57′39″N   54°00′21″E
темп.,
°C
ветер,
м/с
пор.,
м/с
влажн.,
%
обл.,
%
осадки,
мм/ч
давл.,
гПа
погр.,
м
5 декабря, вс
вс523:00+1ююв510606 0.0 1024180
02:000ююв510756 0.0 1023192
05:000ююв48805 0.0 1023138
08:00−1юв59785 0.0 1021170
11:00+1ююв686311 0.0 1022246
14:00+4ююв6748100 0.0 1020386
17:00+4ююв465375 0.0 1019120
20:00+2ююв575988 0.0 1020103
6 декабря, пн
пн623:00+1ююв4860100 0.0 1019139
02:00+1ююв4766100 0.0 1019117
05:00+2ююв4567100 0.0 1019100
08:00+2ююв3469100 0.0 101949
11:00+3ююв336461 0.0 1021114
14:00+7ю235153 0.0 1021335
17:00+6ююв225561 0.0 102211
20:00+5ююв2258100 0.0 102316
7 декабря, вт
вт723:00+4ююв336197 0.0 102419
02:00+4ююв336186 0.0 102436
05:00+5ююв3361100 0.0 102550
08:00+3ююв336699 0.0 102625
11:00+5ююв236131 0.0 1027122
14:00+7ююв235372 0.0 1027375
17:00+7юв235671 0.0 1028114
20:00+5вюв456228 0.0 102893
8 декабря, ср
ср823:00+4вюв47715 0.0 1029115
02:00+3вюв58748 0.0 1029150
05:00+2вюв6117599 0.0 1029222
08:00+2вюв7138482 0.0 1029272
11:00+3вюв9157183 0.0 1030441
14:00+7юв101448100 0.0 1029648
17:00+7вюв101544100 0.0 1028596
20:00+5вюв11185195 0.0 1028529
9 декабря, чт
чт923:00+3вюв11206012 0.0 1027544
02:00+3вюв112163100 0.0 1026552
05:00+3вюв112163100 0.0 1025538
08:00+3вюв112162100 0.0 1024527
11:00+5вюв12215899 0.0 1023635
14:00+8вюв12205098 0.0 1021749
17:00+8вюв122051100 0.0 1019647
20:00+7вюв122058100 0.0 1019591